TimeCDT,TemperatureF,Dew PointF,Humidity,Sea Level PressureIn,VisibilityMPH,Wind Direction,Wind SpeedMPH,Gust SpeedMPH,PrecipitationIn,Events,Conditions,WindDirDegrees,DateUTC
12:53 AM,63.0,59.0,87,29.99,10.0,Calm,Calm,-,N/A,,Clear,0,2013-07-08 05:53:00
1:53 AM,61.0,57.9,90,29.97,10.0,Calm,Calm,-,N/A,,Clear,0,2013-07-08 06:53:00
2:53 AM,59.0,57.0,93,29.97,10.0,NNE,4.6,-,N/A,,Clear,30,2013-07-08 07:53:00
3:53 AM,57.9,57.9,100,29.96,10.0,North,5.8,-,N/A,,Clear,350,2013-07-08 08:53:00
4:53 AM,55.9,55.0,97,29.96,7.0,Calm,Calm,-,N/A,,Clear,0,2013-07-08 09:53:00
5:53 AM,57.0,55.0,93,29.98,9.0,Calm,Calm,-,N/A,,Clear,0,2013-07-08 10:53:00
6:53 AM,57.9,55.0,90,29.98,10.0,Calm,Calm,-,N/A,,Clear,0,2013-07-08 11:53:00
7:53 AM,64.9,61.0,87,30.00,10.0,NNW,3.5,-,N/A,,Clear,330,2013-07-08 12:53:00
8:53 AM,70.0,63.0,78,29.99,10.0,ENE,4.6,-,N/A,,Clear,60,2013-07-08 13:53:00
9:53 AM,73.0,60.1,64,29.99,10.0,East,3.5,-,N/A,,Clear,100,2013-07-08 14:53:00
10:53 AM,75.0,60.1,60,29.99,10.0,ESE,8.1,-,N/A,,Clear,110,2013-07-08 15:53:00
11:53 AM,79.0,59.0,50,29.98,10.0,SSE,4.6,-,N/A,,Clear,150,2013-07-08 16:53:00
12:53 PM,84.0,60.1,44,29.97,10.0,SSE,9.2,-,N/A,,Clear,160,2013-07-08 17:53:00
1:53 PM,84.9,55.9,37,29.96,10.0,SSE,8.1,-,N/A,,Clear,160,2013-07-08 18:53:00
2:53 PM,84.9,57.9,40,29.96,10.0,South,8.1,-,N/A,,Clear,190,2013-07-08 19:53:00
3:53 PM,82.9,61.0,47,29.94,10.0,SSE,5.8,-,N/A,,Clear,150,2013-07-08 20:53:00
4:53 PM,84.0,62.1,47,29.92,10.0,South,5.8,-,N/A,,Clear,170,2013-07-08 21:53:00
5:53 PM,86.0,63.0,46,29.91,10.0,South,8.1,-,N/A,,Clear,170,2013-07-08 22:53:00
6:53 PM,84.9,62.1,46,29.90,10.0,SSE,9.2,-,N/A,,Clear,160,2013-07-08 23:53:00
7:53 PM,84.0,64.9,53,29.88,10.0,South,4.6,-,N/A,,Clear,170,2013-07-09 00:53:00
8:53 PM,78.1,69.1,74,29.86,10.0,SE,5.8,-,N/A,,Clear,140,2013-07-09 01:53:00
9:53 PM,75.9,66.0,71,29.89,10.0,Calm,Calm,-,N/A,,Clear,0,2013-07-09 02:53:00
10:53 PM,73.0,64.9,76,29.88,10.0,SSE,5.8,-,N/A,,Clear,150,2013-07-09 03:53:00
11:53 PM,75.0,64.9,71,29.87,10.0,East,4.6,-,0.00,Rain,Light Rain,80,2013-07-09 04:53:00